K8POS Weather Reports


time (UTC)temp
C
wind
direction
speed
KPH
gust
KPH
rain 1hr
cm
rain 24hr
cm
rain mn
cm
humidity
%
barometer
mb
20260509020008 11 151 1.6 3.2 0.00 0.03 0.03 80 1006.9
20260509014504 11 151 1.6 3.2 0.00 0.03 0.03 77 1006.8
20260509013007 11 151 1.6 4.8 0.00 0.03 0.03 74 1006.7
20260509011505 12 151 1.6 4.8 0.00 0.03 0.03 70 1006.5
20260509010008 12 150 1.6 3.2 0.00 0.03 0.03 66 1006.4
20260509004504 13 150 3.2 4.8 0.00 0.03 0.03 65 1006.3
20260509001504 14 145 1.6 8.0 0.00 0.03 0.03 58 1006.2
20260509000008 15 137 1.6 4.8 0.00 0.03 0.03 57 1006.2
20260508234504 15 140 3.2 8.0 0.00 0.03 0.03 54 1006.1
20260508233007 16 147 3.2 12.9 0.00 0.03 0.03 51 1006.3
20260508231505 16 146 3.2 14.5 0.00 0.03 0.03 49 1006.2
20260508230007 17 172 3.2 11.3 0.00 0.03 0.03 45 1006.3
20260508224504 17 226 6.4 14.5 0.00 0.03 0.03 37 1006.3
20260508223007 17 253 6.4 20.9 0.00 0.03 0.03 35 1006.2
20260508221505 17 243 6.4 19.3 0.00 0.03 0.03 37 1006.3
20260508220008 17 244 9.7 20.9 0.00 0.03 0.03 34 1006.5
20260508214504 17 229 6.4 22.5 0.00 0.03 0.03 36 1006.5
20260508213006 17 220 4.8 16.1 0.00 0.03 0.03 37 1006.5
20260508211504 17 227 6.4 22.5 0.00 0.03 0.03 36 1006.6
20260508210008 17 207 4.8 9.7 0.00 0.03 0.03 37 1006.7
20260508204504 17 241 8.0 17.7 0.00 0.03 0.03 39 1006.8
20260508203006 16 232 8.0 16.1 0.00 0.03 0.03 34 1007.0
20260508201504 17 214 8.0 20.9 0.00 0.03 0.03 34 1007.2
20260508200007 16 213 8.0 17.7 0.00 0.03 0.03 35 1007.5
20260508194504 16 245 8.0 19.3 0.00 0.03 0.03 37 1007.7
20260508193006 16 229 6.4 27.4 0.00 0.03 0.03 34 1007.9
20260508191505 16 243 4.8 19.3 0.00 0.03 0.03 35 1008.0
20260508183008 16 195 3.2 14.5 0.00 0.03 0.03 31 1008.5
20260508181505 15 251 6.4 12.9 0.00 0.03 0.03 37 1008.8
20260508180008 15 238 4.8 16.1 0.00 0.03 0.03 35 1009.0
20260508173008 15 238 8.0 20.9 0.00 0.03 0.03 37 1009.5
20260508171504 15 222 4.8 12.9 0.00 0.03 0.03 40 1009.6
20260508170007 15 218 6.4 14.5 0.00 0.03 0.03 42 1010.0
20260508164505 13 258 6.4 16.1 0.00 0.03 0.03 39 1010.2
20260508163007 14 223 3.2 8.0 0.00 0.03 0.03 40 1010.2
20260508161504 13 260 4.8 11.3 0.00 0.03 0.03 39 1010.2
20260508160007 13 329 6.4 12.9 0.00 0.03 0.03 47 1010.4
20260508154504 12 264 4.8 16.1 0.00 0.03 0.03 45 1010.6
20260508153007 13 231 4.8 14.5 0.00 0.03 0.03 49 1010.6
20260508151504 12 244 6.4 12.9 0.00 0.03 0.03 53 1010.8
20260508150007 12 259 4.8 14.5 0.00 0.03 0.03 51 1010.8
20260508144504 12 228 4.8 11.3 0.00 0.03 0.03 51 1010.9
20260508143008 11 236 4.8 14.5 0.00 0.03 0.03 59 1011.0
20260508141505 11 226 3.2 11.3 0.00 0.03 0.03 58 1011.1
20260508140010 11 236 1.6 8.0 0.00 0.03 0.03 58 1011.1
20260508134505 10 252 3.2 8.0 0.00 0.03 0.03 61 1011.1
20260508133007 10 248 3.2 8.0 0.00 0.03 0.03 62 1011.2
20260508131505 9 260 3.2 11.3 0.00 0.03 0.03 65 1011.3
20260508130007 8 263 3.2 9.7 0.00 0.03 0.03 69 1011.3
20260508124504 8 265 3.2 6.4 0.00 0.03 0.03 74 1011.1
20260508123008 7 266 1.6 9.7 0.00 0.03 0.03 79 1011.0
20260508121505 7 228 0.0 4.8 0.00 0.03 0.03 83 1010.9
20260508120008 6 228 0.0 3.2 0.00 0.03 0.03 84 1010.9
20260508114504 5 228 0.0 1.6 0.03 0.03 0.03 83 1010.7
20260508113007 5 228 0.0 3.2 0.03 0.03 0.03 83 1010.6
20260508111505 3 226 0.0 3.2 0.03 0.03 0.03 84 1010.5
20260508110008 3 226 0.0 1.6 0.03 0.03 0.03 84 1010.5
20260508103008 2 0 0.0 0.0 0.00 0.00 0.00 85 1010.4
20260508101504 2 0 0.0 0.0 0.00 0.00 0.00 85 1010.5
20260508100008 3 0 0.0 0.0 0.00 0.00 0.00 86 1010.5
20260508093007 4 0 0.0 0.0 0.00 0.00 0.00 86 1010.7
20260508091504 4 0 0.0 0.0 0.00 0.00 0.00 86 1010.7
20260508083008 5 0 0.0 0.0 0.00 0.00 0.00 85 1010.6
20260508081505 5 0 0.0 0.0 0.00 0.00 0.00 85 1010.6
20260508080009 5 226 0.0 3.2 0.00 0.00 0.00 85 1010.5
20260508074504 6 226 0.0 3.2 0.00 0.00 0.00 84 1010.5
20260508071504 6 222 3.2 14.5 0.00 0.00 0.00 83 1010.6
20260508064505 6 230 3.2 6.4 0.00 0.00 0.00 83 1010.7
20260508063006 6 298 0.0 3.2 0.00 0.00 0.00 84 1010.8
20260508061504 6 298 0.0 3.2 0.00 0.00 0.00 84 1011.1
20260508060007 6 298 0.0 1.6 0.00 0.00 0.00 85 1011.1
20260508054504 5 0 0.0 0.0 0.00 0.00 0.00 84 1011.2
20260508053007 5 298 0.0 3.2 0.00 0.00 0.00 84 1011.4
20260508051504 5 0 0.0 0.0 0.00 0.00 0.00 84 1011.4
20260508050007 6 0 0.0 0.0 0.00 0.00 0.00 85 1011.5
20260508044505 6 0 0.0 0.0 0.00 0.00 0.00 82 1011.5
20260508043009 6 0 0.0 0.0 0.00 0.00 0.00 83 1011.3
20260508041505 6 0 0.0 0.0 0.00 0.00 0.00 81 1011.3
20260508040030 6 302 3.2 6.4 0.00 0.00 0.00 79 1011.2
20260508034505 6 288 3.2 12.9 0.00 0.00 0.00 78 1011.2
20260508033007 5 87 0.0 11.3 0.00 0.00 0.00 79 1011.5
20260508031505 5 49 0.0 3.2 0.00 0.00 0.00 77 1011.4
20260508030009 5 47 1.6 4.8 0.00 0.00 0.00 77 1011.4
20260508024504 5 45 3.2 4.8 0.00 0.00 0.00 75 1011.4